Location: ?ejeti?ky
(50.4060°N, 14.9016°E)
Time: 21:10:50
(UTC+00:00)

X-37B - Pass Details

Date: 15 December 2021
Orbit: 334 x 337 km, 45.0° (Epoch: 11 January)

Event Time Altitude Azimuth Distance (km) Brightness Sun altitude
Rises 16:46:34 0° 262° (W) 2,106 6.0 -16.3°
Reaches altitude 10° 16:48:48 10° 246° (WSW) 1,268 4.5 -16.7°
Maximum altitude 16:51:07 22° 192° (SSW) 782 2.4 -17.0°
Enters shadow 16:52:16 18° 157° (SSE) 925 2.4 -17.2°
